| time (UTC) | temp C | wind direction | speed KPH | gust KPH | rain 1hr cm | rain 24hr cm | rain mn cm | humidity % | barometer mb |
| 20260903120039 | 26 | 269 | 19.3 | 22.5 | 0.00 | 0.00 | 0.00 | 47 | 999.1 |
| 20260903114525 | 26 | 270 | 16.1 | 20.9 | 0.00 | 0.00 | 0.00 | 47 | 998.8 |
| 20260903111531 | 26 | 254 | 17.7 | 19.3 | 0.00 | 0.00 | 0.00 | 48 | 998.7 |
| 20260903110031 | 25 | 277 | 12.9 | 19.3 | 0.00 | 0.00 | 0.00 | 49 | 998.8 |
| 20260903104549 | 25 | 226 | 9.7 | 12.9 | 0.00 | 0.00 | 0.00 | 50 | 998.7 |
| 20260903101526 | 25 | 209 | 11.3 | 16.1 | 0.00 | 0.00 | 0.00 | 50 | 998.6 |
| 20260903100043 | 26 | 200 | 17.7 | 20.9 | 0.00 | 0.00 | 0.00 | 48 | 998.7 |
| 20260903094547 | 27 | 198 | 14.5 | 19.3 | 0.00 | 0.00 | 0.00 | 47 | 998.8 |
| 20260903091516 | 27 | 203 | 14.5 | 17.7 | 0.00 | 0.00 | 0.00 | 45 | 998.8 |
| 20260903090009 | 27 | 209 | 16.1 | 17.7 | 0.00 | 0.00 | 0.00 | 45 | 998.9 |
| 20260903084508 | 27 | 207 | 14.5 | 19.3 | 0.00 | 0.00 | 0.00 | 44 | 998.8 |
| 20260903081507 | 27 | 200 | 16.1 | 17.7 | 0.00 | 0.00 | 0.00 | 43 | 999.0 |
| 20260903080007 | 28 | 198 | 14.5 | 17.7 | 0.00 | 0.00 | 0.00 | 42 | 999.2 |
| 20260903074506 | 28 | 186 | 12.9 | 16.1 | 0.00 | 0.00 | 0.00 | 42 | 999.2 |
| 20260903071507 | 29 | 216 | 9.7 | 12.9 | 0.00 | 0.00 | 0.00 | 40 | 999.2 |
| 20260903070004 | 28 | 195 | 8.0 | 11.3 | 0.00 | 0.00 | 0.00 | 41 | 999.2 |
| 20260903064502 | 29 | 168 | 14.5 | 20.9 | 0.00 | 0.00 | 0.00 | 41 | 999.3 |
| 20260903061506 | 28 | 216 | 11.3 | 14.5 | 0.00 | 0.00 | 0.00 | 42 | 999.3 |
| 20260903060002 | 30 | 193 | 12.9 | 16.1 | 0.00 | 0.00 | 0.00 | 40 | 999.5 |
| 20260903054502 | 30 | 189 | 16.1 | 19.3 | 0.00 | 0.00 | 0.00 | 40 | 999.5 |
| 20260903051502 | 29 | 198 | 14.5 | 17.7 | 0.00 | 0.00 | 0.00 | 42 | 999.5 |
| 20260903050100 | 29 | 208 | 14.5 | 16.1 | 0.00 | 0.00 | 0.00 | 42 | 999.5 |
| 20260903044601 | 29 | 219 | 12.9 | 16.1 | 0.00 | 0.00 | 0.00 | 43 | 999.5 |
| 20260903041605 | 30 | 214 | 12.9 | 17.7 | 0.00 | 0.00 | 0.00 | 37 | 999.6 |
| 20260903040058 | 30 | 210 | 12.9 | 16.1 | 0.00 | 0.00 | 0.00 | 38 | 999.5 |
| 20260903034556 | 30 | 207 | 14.5 | 16.1 | 0.00 | 0.00 | 0.00 | 37 | 999.4 |
| 20260903031559 | 31 | 214 | 14.5 | 19.3 | 0.00 | 0.00 | 0.00 | 37 | 999.2 |
| 20260903030058 | 31 | 209 | 19.3 | 27.4 | 0.00 | 0.00 | 0.00 | 36 | 999.0 |
| 20260903024604 | 31 | 193 | 20.9 | 27.4 | 0.00 | 0.05 | 0.00 | 39 | 998.8 |
| 20260903021554 | 32 | 191 | 3.2 | 6.4 | 0.00 | 0.05 | 0.00 | 34 | 998.3 |
| 20260903020053 | 33 | 123 | 3.2 | 4.8 | 0.00 | 0.05 | 0.00 | 34 | 998.2 |
| 20260903014555 | 33 | 144 | 3.2 | 4.8 | 0.00 | 0.05 | 0.00 | 33 | 998.2 |
| 20260903011555 | 33 | 184 | 8.0 | 9.7 | 0.00 | 0.05 | 0.00 | 31 | 998.1 |
| 20260903010054 | 33 | 182 | 8.0 | 16.1 | 0.00 | 0.05 | 0.00 | 34 | 998.1 |
| 20260903004557 | 33 | 169 | 19.3 | 20.9 | 0.00 | 0.05 | 0.00 | 33 | 998.1 |
| 20260903001518 | 33 | 148 | 16.1 | 20.9 | 0.00 | 0.05 | 0.00 | 35 | 998.0 |
| 20260903000035 | 33 | 147 | 19.3 | 24.1 | 0.00 | 0.05 | 0.00 | 35 | 998.2 |
| 20260902234515 | 33 | 123 | 16.1 | 22.5 | 0.00 | 0.05 | 0.00 | 30 | 998.2 |
| 20260902231532 | 33 | 134 | 29.0 | 35.4 | 0.00 | 0.05 | 0.00 | 34 | 998.3 |
| 20260902230027 | 32 | 136 | 27.4 | 41.8 | 0.00 | 0.05 | 0.00 | 34 | 998.5 |
| 20260902224609 | 32 | 123 | 32.2 | 45.1 | 0.00 | 0.05 | 0.00 | 36 | 998.5 |
| 20260902223054 | 32 | 138 | 33.8 | 51.5 | 0.00 | 0.05 | 0.00 | 34 | 998.6 |
| 20260902221554 | 33 | 140 | 20.9 | 33.8 | 0.00 | 0.05 | 0.00 | 33 | 998.7 |
| 20260902220057 | 32 | 126 | 29.0 | 64.4 | 0.00 | 0.05 | 0.00 | 34 | 998.7 |
| 20260902214556 | 33 | 142 | 57.9 | 75.6 | 0.00 | 0.05 | 0.00 | 35 | 998.2 |
| 20260902213051 | 35 | 309 | 8.0 | 19.3 | 0.00 | 0.05 | 0.00 | 28 | 998.5 |
| 20260902211547 | 35 | 236 | 12.9 | 29.0 | 0.00 | 0.05 | 0.00 | 30 | 998.6 |
| 20260902210051 | 34 | 284 | 24.1 | 30.6 | 0.00 | 0.05 | 0.00 | 31 | 999.0 |
| 20260902204549 | 35 | 263 | 22.5 | 29.0 | 0.00 | 0.05 | 0.00 | 29 | 999.2 |
| 20260902203112 | 35 | 141 | 22.5 | 35.4 | 0.00 | 0.05 | 0.00 | 29 | 999.2 |
| 20260902201604 | 35 | 83 | 11.3 | 27.4 | 0.00 | 0.05 | 0.00 | 30 | 999.4 |
| 20260902200125 | 35 | 177 | 14.5 | 40.2 | 0.00 | 0.05 | 0.00 | 29 | 999.7 |
| 20260902194548 | 35 | 142 | 12.9 | 29.0 | 0.00 | 0.05 | 0.00 | 29 | 999.8 |
| 20260902193046 | 35 | 51 | 4.8 | 14.5 | 0.00 | 0.05 | 0.00 | 30 | 1000.1 |
| 20260902191549 | 35 | 183 | 17.7 | 27.4 | 0.00 | 0.05 | 0.00 | 29 | 1000.4 |
| 20260902190054 | 34 | 64 | 8.0 | 19.3 | 0.00 | 0.05 | 0.00 | 31 | 1000.7 |
| 20260902184545 | 34 | 148 | 16.1 | 25.7 | 0.00 | 0.05 | 0.00 | 31 | 1000.8 |
| 20260902183050 | 34 | 26 | 4.8 | 24.1 | 0.00 | 0.05 | 0.00 | 32 | 1001.1 |
| 20260902181547 | 33 | 18 | 6.4 | 19.3 | 0.00 | 0.05 | 0.00 | 34 | 1001.4 |
| 20260902180044 | 33 | 100 | 11.3 | 29.0 | 0.00 | 0.05 | 0.00 | 35 | 1001.7 |
| 20260902174529 | 33 | 126 | 14.5 | 22.5 | 0.00 | 0.05 | 0.00 | 35 | 1002.0 |
| 20260902173029 | 32 | 186 | 11.3 | 24.1 | 0.00 | 0.05 | 0.00 | 36 | 1002.2 |
| 20260902171527 | 32 | 93 | 9.7 | 20.9 | 0.00 | 0.05 | 0.00 | 36 | 1002.3 |
| 20260902170025 | 32 | 134 | 9.7 | 16.1 | 0.00 | 0.05 | 0.00 | 38 | 1002.5 |
| 20260902164534 | 32 | 135 | 8.0 | 19.3 | 0.00 | 0.05 | 0.00 | 38 | 1002.5 |
| 20260902163032 | 31 | 138 | 3.2 | 16.1 | 0.00 | 0.05 | 0.00 | 40 | 1002.5 |
| 20260902161543 | 31 | 141 | 3.2 | 12.9 | 0.00 | 0.05 | 0.00 | 41 | 1002.7 |
| 20260902160035 | 30 | 189 | 9.7 | 17.7 | 0.00 | 0.05 | 0.00 | 42 | 1002.6 |
| 20260902154523 | 30 | 102 | 6.4 | 14.5 | 0.00 | 0.05 | 0.00 | 44 | 1002.6 |
| 20260902153012 | 28 | 63 | 9.7 | 14.5 | 0.00 | 0.05 | 0.00 | 46 | 1002.6 |
| 20260902151508 | 28 | 69 | 6.4 | 9.7 | 0.00 | 0.05 | 0.00 | 49 | 1002.6 |
| 20260902150007 | 27 | 67 | 8.0 | 11.3 | 0.00 | 0.05 | 0.00 | 51 | 1002.7 |
| 20260902144501 | 26 | 24 | 6.4 | 14.5 | 0.00 | 0.05 | 0.00 | 55 | 1002.6 |
| 20260902143105 | 25 | 45 | 9.7 | 14.5 | 0.00 | 0.05 | 0.00 | 58 | 1002.6 |
| 20260902141601 | 24 | 20 | 4.8 | 9.7 | 0.00 | 0.05 | 0.00 | 57 | 1002.5 |
| 20260902134555 | 24 | 330 | 6.4 | 8.0 | 0.00 | 0.05 | 0.00 | 56 | 1002.3 |
| 20260902133052 | 25 | 346 | 8.0 | 12.9 | 0.00 | 0.05 | 0.00 | 53 | 1002.1 |
| 20260902131551 | 24 | 323 | 8.0 | 9.7 | 0.00 | 0.05 | 0.00 | 54 | 1001.9 |
| 20260902130147 | 24 | 330 | 4.8 | 6.4 | 0.00 | 0.05 | 0.00 | 56 | 1001.9 |
| 20260902124558 | 24 | 9 | 4.8 | 9.7 | 0.00 | 0.05 | 0.00 | 56 | 1001.9 |
| 20260902123047 | 24 | 48 | 4.8 | 9.7 | 0.00 | 0.05 | 0.00 | 58 | 1001.9 |
| 20260902121547 | 23 | 76 | 6.4 | 9.7 | 0.00 | 0.05 | 0.00 | 59 | 1001.7 |